SCP
0 -0 -0 -0 -0 -0 -0 -0 -0 -0 -0 -0 -0 -0 -0 -0 -0 -0 -0 -0 -0 -0 -0 -0 0 0 0 0 0 0 0 0 0 -0 0 0 -0 -0 -0 -0 -0 -0 -0
-0 -0 -0 -0 -0 -0 -0 -0 -0 -0 -0 -0 -0 0 0 -0 -0 -0 -0 -0 -0 -0 -0 -0 -0 -0 -0 -0 0 0 0 0 0 0 0 0 0 -0 -0 -0 -0 -0 -0
-0 -0 -0 -0 -0 -0 -0 -0 -0 -0 -0 -0 -0 -0 -0 0 -0 -0 -0 -0 -0 -0 -0 -0 -0 -0 -0 -0 0 0 0 0 0 0 0 0 0 0 0 0 0 0 -0
0 -0 -0 -0 -0 -0 -0 -0 -0 -0 -0 -0 -0 -0 -0 0 0 0 0 -0 -0 0 0 0 0 -0 -0 -0 0 0 0 0 0 0 0 0 0 0 0 0 0 0 0
0 0 0 -0 -0 -0 -0 -0 -0 -0 -0 -0 -0 -0 0 0 0 0 0 0 0 0 0 0 0 0 0 0 0 0 0 0 0 0 0 0 0 0 0 0 0 0 0
0 0 0 0 0 -0 -0 -0 0 0 -0 -0 -0 0 0 0 0 0 0 0 0 0 0 0 0 0 0 0 0 0 0 0 0 0 0 0 0 0 0 0 0 0 0
0 0 0 0 0 0 0 0 0 0 0 0 0 0 0 0 0 0 0 0 0 0 0 0 0 0 0 0 0 0 0 0 0 0 0 0 0 0 0 0 0 0 0
0 0 0 0 0 0 0 0 0 0 0 0 0 0 0 0 0 0 0 0 0 0 0 0 0 0 0 0 0 0 0 0 0 0 0 0 0 0 0 0 0 0 0
0 0 0 0 0 0 0 0 0 0 0 0 0 0 0 0 0 0 0 0 0 0 0 0 0 0 0 0 0 0 0 0 0 0 0 0 0 0 0 0 0 0 0
0 0 0 0 0 0 0 0 0 0 0 0 0 0 0 0 0 0 0 0 0 0 0 0 0 0 0 0 0 0 0 0 0 0 0 0 0 0 0 0 0 0 0
0 0 0 0 0 0 0 0 0 0 0 0 0 0 0 0 0 0 0 0 0 0 0 0 0 0 0 0 0 0 0 0 0 0 0 0 0 0 0 0 0 0 0
0 0 0 0 0 0 0 0 0 0 0 0 0 0 0 0 0 0 0 0 0 0 0 0 0 0 0 0 0 0 0 0 0 0 0 0 0 0 0 0 0 0 0
0 0 0 0 0 0 0 0 0 0 0 0 0 0 0 0 0 0 0 0 0 0 0 0 0 0 0 0 0 0 0 0 0 0 0 0 0 0 0 0 0 0 0
0 0 0 0 0 0 0 0 0 0 0 0 0 0 0 0 0 0 0 0 0 0 0 0 0 0 0 0 0 0 0 0 0 0 0 0 0 0 0 0 0 0 0
0 0 0 0 0 0 0 0 0 0 0 0 0 0 0 0 0 0 0 0 0 0 0 0 0 0 0 0 0 0 0 0 0 0 0 0 0 0 0 0 0 0 0
0 0 0 0 0 0 0 0 0 0 0 0 0 0 0 0 0 0 0 0 0 0 0 0 0 0 -0 -0 0 0 0 0 0 0 0 0 0 0 0 0 0 0 0
0 0 0 0 0 0 0 0 0 0 0 0 0 0 0 0 0 0 0 0 0 0 0 -0 -0 -0 0 -0 -0 -0 0 0 0 0 0 0 0 0 0 0 0 0 0
0 0 0 0 0 0 0 0 0 0 0 0 0 0 0 0 0 0 0 0 0 0 0 0 -0 0 -0 -0 -0 0 0 0 0 0 0 0 0 0 0 0 0 0 0
0 0 0 0 0 0 0 0 0 0 0 0 0 0 0 0 0 0 0 0 0 0 0 0 0 0 -0 -0 -0 0 0 0 0 0 0 0 0 0 0 0 0 0 0
0 0 0 0 0 0 0 0 0 0 0 0 0 0 0 0 0 0 0 0 0 0 0 0 0 0 -0 -0 -0 0 0 0 0 0 0 0 0 0 0 0 0 0 0
0 0 0 0 0 0 0 0 0 0 0 0 0 0 0 0 0 0 0 0 0 0 0 0 0 0 0 -0 -0 -0 0 0 0 0 0 0 0 0 0 0 0 0 0
0 0 0 0 0 0 0 0 0 0 0 0 0 0 0 0 0 0 0 0 0 0 0 0 0 0 0 -0 -0 -0 -0 -0 0 0 0 0 0 0 0 0 0 0 0
0 0 0 0 0 0 0 0 0 0 0 0 0 0 0 0 0 0 0 0 0 0 0 0 0 0 0 0 0 0 -0 0 0 0 0 0 0 0 0 0 0 0 0
0 0 0 0 0 0 0 0 0 0 0 0 0 0 0 0 0 0 0 0 0 0 0 0 0 0 0 0 0 0 0 0 0 0 0 0 0 0 0 0 0 0 0
0 0 0 0 0 0 0 0 0 0 0 0 0 0 0 0 0 0 0 0 0 0 0 0 0 0 0 0 0 0 0 0 0 0 0 0 0 0 0 0 0 0 0
0 0 0 0 0 0 0 0 0 0 0 0 0 0 0 0 0 0 0 0 0 0 0 0 0 0 0 0 0 0 0 0 0 0 0 0 0 0 0 0 0 0 0
Wind_Speed_500mb
20 18 14 11 12 10 11 8 5 3 5 5 7 10 12 14 14 14 12 13 13 13 13 12 12 11 13 13 14 16 18 18 17 15 16 19 19 19 20 19 18 16 13
23 19 16 14 11 7 9 10 10 8 5 4 7 11 12 14 16 17 16 15 15 13 14 13 13 14 16 16 17 17 19 22 23 22 19 18 19 21 22 19 20 17 14
24 20 18 15 12 9 8 7 8 7 7 3 7 11 13 16 17 18 17 17 16 16 15 16 17 19 21 22 22 24 23 23 24 24 22 20 15 19 20 23 22 19 20
26 23 15 15 12 8 4 4 5 7 10 13 17 20 22 20 21 22 20 18 19 19 20 22 23 23 23 23 25 27 28 30 29 26 24 20 21 12 22 21 20 21 22
27 22 16 11 7 6 4 3 2 2 4 8 13 16 18 18 19 21 22 24 24 26 27 28 29 28 29 30 29 29 30 30 30 29 27 22 26 26 30 31 23 22 23
29 25 20 16 13 9 5 2 3 5 6 8 9 11 13 14 17 18 20 21 22 25 27 31 34 34 35 35 36 36 35 35 35 31 29 28 31 31 37 33 31 28 26
32 27 22 17 11 7 4 3 4 4 5 9 12 14 15 15 16 19 22 21 23 25 28 30 30 31 34 38 40 41 41 40 39 38 35 29 27 34 37 41 35 32 33
35 28 25 21 19 15 10 7 4 4 5 5 6 9 11 13 15 14 14 15 17 18 20 23 27 30 34 36 38 39 41 45 47 45 39 36 37 39 43 45 40 36 33
36 34 32 31 27 21 14 10 7 5 4 5 9 11 13 14 14 12 13 15 16 16 17 18 21 23 26 29 31 34 38 41 44 44 47 43 35 35 40 47 47 41 40
41 41 41 36 32 24 18 13 9 7 6 9 14 16 17 16 13 14 16 17 19 20 22 23 25 26 28 29 31 32 32 30 35 40 43 40 35 34 38 45 48 45 44
48 49 49 44 38 31 23 18 15 15 12 13 17 18 16 12 11 13 17 21 24 27 28 29 29 29 29 30 31 31 32 33 31 31 32 36 43 55 57 57 53 54 49
55 56 56 51 45 37 33 27 24 22 21 20 20 18 16 13 14 16 18 20 21 24 27 29 30 31 32 32 31 31 32 33 33 33 33 33 37 42 50 59 62 63 61
55 58 59 55 50 44 42 34 31 31 29 26 22 19 18 16 16 16 18 19 22 23 27 30 33 34 34 37 38 38 37 36 36 37 39 38 38 40 44 49 55 59 61
58 58 59 60 57 50 48 41 39 37 35 31 26 24 21 19 20 19 19 21 22 26 31 36 37 37 36 35 34 38 42 44 45 44 44 43 45 46 45 47 49 53 55
63 62 63 61 61 57 51 47 46 43 39 35 30 26 23 23 22 19 20 21 22 27 33 37 40 41 37 36 39 41 40 41 44 49 50 47 45 47 50 50 50 50 51
66 68 67 63 63 61 54 54 49 45 42 37 33 28 25 24 22 20 21 19 23 30 36 41 43 44 45 45 42 43 45 45 44 45 47 49 51 51 50 52 54 54 52
69 72 73 67 65 64 59 57 54 50 46 42 39 33 28 28 25 22 20 20 25 32 39 45 45 44 45 47 50 52 52 52 52 49 47 47 47 46 48 51 51 54 57
67 76 76 71 67 66 64 61 57 53 48 46 42 35 31 28 24 21 19 21 27 33 39 42 42 42 46 51 55 55 58 61 60 58 52 47 41 41 41 41 45 45 49
70 78 77 73 69 68 66 61 58 54 50 45 41 37 32 29 27 22 20 24 29 36 38 41 42 45 49 53 60 62 62 63 61 48 46 42 42 37 27 41 54 49 45
73 79 76 72 70 67 65 62 61 57 52 49 45 42 37 35 28 22 23 28 34 38 39 40 40 40 47 56 64 68 67 62 57 51 38 31 35 49 53 52 42 52 61
74 78 77 74 72 70 73 72 67 62 57 52 50 49 45 39 29 26 29 37 37 38 38 39 39 43 45 52 64 76 72 58 35 22 36 57 58 50 51 49 64 51 42
77 80 79 77 72 75 77 73 68 61 60 54 54 53 50 42 35 33 38 39 37 36 37 38 39 42 45 47 54 60 38 57 13 47 62 46 53 48 45 53 52 73 78
82 86 82 79 74 77 78 74 72 66 62 63 62 59 56 48 41 37 38 39 40 38 37 38 39 41 46 47 46 41 28 21 79 42 83 36 36 48 58 69 76 75 79
76 78 78 76 75 77 80 82 83 80 75 70 62 59 60 54 49 44 39 42 41 39 39 42 43 42 46 51 53 51 48 54 40 62 62 73 82 80 76 90 88 91 100
67 74 74 76 77 80 84 86 81 79 72 65 64 64 62 58 53 48 41 42 41 40 42 46 45 42 47 54 53 56 58 58 54 58 102 92 94 103 101 101 104 105 109
61 69 72 75 78 81 85 86 81 80 77 76 73 68 65 62 57 48 45 44 42 42 45 48 49 49 52 57 58 58 58 57 59 56 76 111 109 117 111 112 113 114 115
Wind_Direction_500mb
179 187 190 187 174 169 175 152 183 230 272 269 265 263 277 297 307 306 325 333 329 325 326 320 324 322 320 321 321 318 312 306 302 298 310 319 323 324 323 327 332 334 334
190 186 189 189 183 184 208 175 134 162 198 237 277 277 277 288 296 302 309 315 314 314 311 322 318 313 307 308 314 315 316 312 309 310 311 313 323 332 325 320 322 323 320
181 195 191 195 187 197 226 228 231 232 220 219 279 300 305 305 304 301 304 305 309 307 307 304 300 299 307 312 308 307 309 309 309 312 316 315 322 339 313 313 308 309 314
185 204 187 187 188 186 231 303 296 289 286 283 289 295 299 302 303 302 304 308 307 304 300 296 298 300 300 302 304 305 306 304 304 309 312 313 309 284 291 297 302 296 297
193 202 201 193 185 172 170 159 182 230 260 271 284 299 300 299 293 290 287 285 285 286 289 292 296 300 301 299 297 295 295 297 301 305 304 298 294 296 286 290 291 292 290
202 199 199 189 180 165 144 82 5 347 342 318 317 306 300 299 299 297 292 290 290 289 291 292 295 295 294 295 296 298 299 300 300 300 303 301 300 291 292 292 292 287 282
210 211 204 195 189 196 220 247 268 288 311 307 316 314 312 308 299 296 297 298 297 298 299 297 296 293 291 289 288 288 289 290 291 295 297 301 308 298 295 294 291 290 285
214 216 207 203 204 215 229 238 247 295 303 307 314 324 328 321 316 315 314 311 309 309 311 311 308 305 299 295 293 292 289 287 288 288 288 292 291 291 295 292 290 288 286
215 217 215 214 216 219 220 231 242 260 289 336 346 347 342 338 340 344 343 345 346 344 339 334 328 322 319 317 312 306 297 290 287 284 283 283 293 296 289 289 290 285 283
218 220 223 220 224 223 226 232 241 259 283 321 330 328 326 321 329 341 349 351 350 350 348 343 338 336 331 327 323 319 313 306 291 283 283 281 272 270 278 283 285 287 280
222 222 223 225 227 224 225 229 235 246 256 283 296 298 292 300 318 337 343 346 349 345 344 340 337 331 327 322 320 319 317 316 314 305 295 281 267 265 266 268 278 280 285
228 223 225 226 227 225 224 223 230 236 243 255 265 271 278 293 312 322 330 337 337 336 334 329 323 319 317 314 312 311 312 311 309 307 304 300 293 285 279 275 272 274 275
233 229 230 228 226 223 226 224 226 230 236 245 254 259 268 278 286 295 305 316 323 323 322 321 319 318 316 316 316 315 313 312 311 309 307 303 297 294 291 287 284 278 274
234 235 231 229 228 225 227 226 230 232 235 239 244 250 257 264 269 281 299 310 314 322 324 324 323 320 319 317 315 315 314 312 311 307 303 302 302 300 298 296 293 289 285
233 235 235 229 226 224 226 225 228 232 233 236 238 242 253 264 270 280 295 303 315 322 320 324 324 321 320 320 322 322 319 315 312 311 310 307 303 300 299 296 294 293 289
231 232 236 230 226 224 223 226 229 231 236 237 239 240 250 258 260 270 281 293 308 319 325 325 325 327 330 332 333 330 326 323 321 316 312 311 307 304 298 295 293 291 289
230 232 234 231 226 223 221 225 227 230 232 235 234 233 241 248 251 265 276 297 315 321 324 327 329 330 332 332 331 332 329 327 324 321 314 309 305 300 297 294 290 288 287
231 230 231 230 223 221 221 224 228 230 230 229 230 232 233 241 251 260 275 301 316 318 323 326 328 330 333 332 330 329 328 327 327 322 317 311 305 299 297 301 302 299 292
233 231 229 228 223 221 220 221 225 227 229 231 234 235 236 243 250 260 282 306 311 312 321 327 330 332 333 332 328 328 329 326 324 325 320 313 306 306 311 313 309 304 301
232 229 230 227 223 219 220 221 225 226 228 231 234 234 233 241 247 259 280 296 301 308 320 325 327 330 333 332 328 326 328 329 330 320 322 333 329 310 310 313 313 310 310
225 222 225 225 222 218 218 221 224 227 231 233 234 234 233 237 242 258 278 291 297 307 316 320 323 326 333 331 328 328 332 332 325 330 327 317 312 311 303 295 299 295 302
220 219 224 227 224 221 223 225 228 230 231 235 235 234 235 236 242 256 276 288 293 300 306 314 316 322 325 330 326 327 325 337 300 307 298 301 304 294 293 295 298 294 298
218 221 223 226 225 224 226 224 225 225 228 231 234 235 234 234 240 252 271 284 289 295 302 307 309 317 316 323 321 313 322 308 311 320 311 312 301 297 296 292 295 297 302
223 223 224 226 227 226 226 226 229 234 236 240 240 235 233 235 240 248 264 278 285 292 298 301 305 311 307 313 314 312 305 299 313 313 312 301 307 307 305 303 303 301 300
222 222 221 223 227 228 228 230 232 233 236 237 235 233 235 236 239 248 263 275 282 288 292 296 299 304 306 307 307 306 303 298 292 287 300 303 303 302 302 301 300 299 300
217 218 220 221 224 227 230 233 233 234 232 232 233 234 234 235 239 247 259 269 276 282 286 293 299 303 303 303 304 303 299 294 292 286 287 298 302 304 301 300 300 299 299
Wind_Speed_850mb
20 18 14 11 12 10 11 8 5 3 5 5 7 10 12 14 14 14 12 13 13 13 13 12 12 11 13 13 14 16 18 18 17 15 16 19 19 19 20 19 18 16 13
23 19 16 14 11 7 9 10 10 8 5 4 7 11 12 14 16 17 16 15 15 13 14 13 13 14 16 16 17 17 19 22 23 22 19 18 19 21 22 19 20 17 14
24 20 18 15 12 9 8 7 8 7 7 3 7 11 13 16 17 18 17 17 16 16 15 16 17 19 21 22 22 24 23 23 24 24 22 20 15 19 20 23 22 19 20
26 23 15 15 12 8 4 4 5 7 10 13 17 20 22 20 21 22 20 18 19 19 20 22 23 23 23 23 25 27 28 30 29 26 24 20 21 12 22 21 20 21 22
27 22 16 11 7 6 4 3 2 2 4 8 13 16 18 18 19 21 22 24 24 26 27 28 29 28 29 30 29 29 30 30 30 29 27 22 26 26 30 31 23 22 23
29 25 20 16 13 9 5 2 3 5 6 8 9 11 13 14 17 18 20 21 22 25 27 31 34 34 35 35 36 36 35 35 35 31 29 28 31 31 37 33 31 28 26
32 27 22 17 11 7 4 3 4 4 5 9 12 14 15 15 16 19 22 21 23 25 28 30 30 31 34 38 40 41 41 40 39 38 35 29 27 34 37 41 35 32 33
35 28 25 21 19 15 10 7 4 4 5 5 6 9 11 13 15 14 14 15 17 18 20 23 27 30 34 36 38 39 41 45 47 45 39 36 37 39 43 45 40 36 33
36 34 32 31 27 21 14 10 7 5 4 5 9 11 13 14 14 12 13 15 16 16 17 18 21 23 26 29 31 34 38 41 44 44 47 43 35 35 40 47 47 41 40
41 41 41 36 32 24 18 13 9 7 6 9 14 16 17 16 13 14 16 17 19 20 22 23 25 26 28 29 31 32 32 30 35 40 43 40 35 34 38 45 48 45 44
48 49 49 44 38 31 23 18 15 15 12 13 17 18 16 12 11 13 17 21 24 27 28 29 29 29 29 30 31 31 32 33 31 31 32 36 43 55 57 57 53 54 49
55 56 56 51 45 37 33 27 24 22 21 20 20 18 16 13 14 16 18 20 21 24 27 29 30 31 32 32 31 31 32 33 33 33 33 33 37 42 50 59 62 63 61
55 58 59 55 50 44 42 34 31 31 29 26 22 19 18 16 16 16 18 19 22 23 27 30 33 34 34 37 38 38 37 36 36 37 39 38 38 40 44 49 55 59 61
58 58 59 60 57 50 48 41 39 37 35 31 26 24 21 19 20 19 19 21 22 26 31 36 37 37 36 35 34 38 42 44 45 44 44 43 45 46 45 47 49 53 55
63 62 63 61 61 57 51 47 46 43 39 35 30 26 23 23 22 19 20 21 22 27 33 37 40 41 37 36 39 41 40 41 44 49 50 47 45 47 50 50 50 50 51
66 68 67 63 63 61 54 54 49 45 42 37 33 28 25 24 22 20 21 19 23 30 36 41 43 44 45 45 42 43 45 45 44 45 47 49 51 51 50 52 54 54 52
69 72 73 67 65 64 59 57 54 50 46 42 39 33 28 28 25 22 20 20 25 32 39 45 45 44 45 47 50 52 52 52 52 49 47 47 47 46 48 51 51 54 57
67 76 76 71 67 66 64 61 57 53 48 46 42 35 31 28 24 21 19 21 27 33 39 42 42 42 46 51 55 55 58 61 60 58 52 47 41 41 41 41 45 45 49
70 78 77 73 69 68 66 61 58 54 50 45 41 37 32 29 27 22 20 24 29 36 38 41 42 45 49 53 60 62 62 63 61 48 46 42 42 37 27 41 54 49 45
73 79 76 72 70 67 65 62 61 57 52 49 45 42 37 35 28 22 23 28 34 38 39 40 40 40 47 56 64 68 67 62 57 51 38 31 35 49 53 52 42 52 61
74 78 77 74 72 70 73 72 67 62 57 52 50 49 45 39 29 26 29 37 37 38 38 39 39 43 45 52 64 76 72 58 35 22 36 57 58 50 51 49 64 51 42
77 80 79 77 72 75 77 73 68 61 60 54 54 53 50 42 35 33 38 39 37 36 37 38 39 42 45 47 54 60 38 57 13 47 62 46 53 48 45 53 52 73 78
82 86 82 79 74 77 78 74 72 66 62 63 62 59 56 48 41 37 38 39 40 38 37 38 39 41 46 47 46 41 28 21 79 42 83 36 36 48 58 69 76 75 79
76 78 78 76 75 77 80 82 83 80 75 70 62 59 60 54 49 44 39 42 41 39 39 42 43 42 46 51 53 51 48 54 40 62 62 73 82 80 76 90 88 91 100
67 74 74 76 77 80 84 86 81 79 72 65 64 64 62 58 53 48 41 42 41 40 42 46 45 42 47 54 53 56 58 58 54 58 102 92 94 103 101 101 104 105 109
61 69 72 75 78 81 85 86 81 80 77 76 73 68 65 62 57 48 45 44 42 42 45 48 49 49 52 57 58 58 58 57 59 56 76 111 109 117 111 112 113 114 115
Wind_Direction_850mb
179 187 190 187 174 169 175 152 183 230 272 269 265 263 277 297 307 306 325 333 329 325 326 320 324 322 320 321 321 318 312 306 302 298 310 319 323 324 323 327 332 334 334
190 186 189 189 183 184 208 175 134 162 198 237 277 277 277 288 296 302 309 315 314 314 311 322 318 313 307 308 314 315 316 312 309 310 311 313 323 332 325 320 322 323 320
181 195 191 195 187 197 226 228 231 232 220 219 279 300 305 305 304 301 304 305 309 307 307 304 300 299 307 312 308 307 309 309 309 312 316 315 322 339 313 313 308 309 314
185 204 187 187 188 186 231 303 296 289 286 283 289 295 299 302 303 302 304 308 307 304 300 296 298 300 300 302 304 305 306 304 304 309 312 313 309 284 291 297 302 296 297
193 202 201 193 185 172 170 159 182 230 260 271 284 299 300 299 293 290 287 285 285 286 289 292 296 300 301 299 297 295 295 297 301 305 304 298 294 296 286 290 291 292 290
202 199 199 189 180 165 144 82 5 347 342 318 317 306 300 299 299 297 292 290 290 289 291 292 295 295 294 295 296 298 299 300 300 300 303 301 300 291 292 292 292 287 282
210 211 204 195 189 196 220 247 268 288 311 307 316 314 312 308 299 296 297 298 297 298 299 297 296 293 291 289 288 288 289 290 291 295 297 301 308 298 295 294 291 290 285
214 216 207 203 204 215 229 238 247 295 303 307 314 324 328 321 316 315 314 311 309 309 311 311 308 305 299 295 293 292 289 287 288 288 288 292 291 291 295 292 290 288 286
215 217 215 214 216 219 220 231 242 260 289 336 346 347 342 338 340 344 343 345 346 344 339 334 328 322 319 317 312 306 297 290 287 284 283 283 293 296 289 289 290 285 283
218 220 223 220 224 223 226 232 241 259 283 321 330 328 326 321 329 341 349 351 350 350 348 343 338 336 331 327 323 319 313 306 291 283 283 281 272 270 278 283 285 287 280
222 222 223 225 227 224 225 229 235 246 256 283 296 298 292 300 318 337 343 346 349 345 344 340 337 331 327 322 320 319 317 316 314 305 295 281 267 265 266 268 278 280 285
228 223 225 226 227 225 224 223 230 236 243 255 265 271 278 293 312 322 330 337 337 336 334 329 323 319 317 314 312 311 312 311 309 307 304 300 293 285 279 275 272 274 275
233 229 230 228 226 223 226 224 226 230 236 245 254 259 268 278 286 295 305 316 323 323 322 321 319 318 316 316 316 315 313 312 311 309 307 303 297 294 291 287 284 278 274
234 235 231 229 228 225 227 226 230 232 235 239 244 250 257 264 269 281 299 310 314 322 324 324 323 320 319 317 315 315 314 312 311 307 303 302 302 300 298 296 293 289 285
233 235 235 229 226 224 226 225 228 232 233 236 238 242 253 264 270 280 295 303 315 322 320 324 324 321 320 320 322 322 319 315 312 311 310 307 303 300 299 296 294 293 289
231 232 236 230 226 224 223 226 229 231 236 237 239 240 250 258 260 270 281 293 308 319 325 325 325 327 330 332 333 330 326 323 321 316 312 311 307 304 298 295 293 291 289
230 232 234 231 226 223 221 225 227 230 232 235 234 233 241 248 251 265 276 297 315 321 324 327 329 330 332 332 331 332 329 327 324 321 314 309 305 300 297 294 290 288 287
231 230 231 230 223 221 221 224 228 230 230 229 230 232 233 241 251 260 275 301 316 318 323 326 328 330 333 332 330 329 328 327 327 322 317 311 305 299 297 301 302 299 292
233 231 229 228 223 221 220 221 225 227 229 231 234 235 236 243 250 260 282 306 311 312 321 327 330 332 333 332 328 328 329 326 324 325 320 313 306 306 311 313 309 304 301
232 229 230 227 223 219 220 221 225 226 228 231 234 234 233 241 247 259 280 296 301 308 320 325 327 330 333 332 328 326 328 329 330 320 322 333 329 310 310 313 313 310 310
225 222 225 225 222 218 218 221 224 227 231 233 234 234 233 237 242 258 278 291 297 307 316 320 323 326 333 331 328 328 332 332 325 330 327 317 312 311 303 295 299 295 302
220 219 224 227 224 221 223 225 228 230 231 235 235 234 235 236 242 256 276 288 293 300 306 314 316 322 325 330 326 327 325 337 300 307 298 301 304 294 293 295 298 294 298
218 221 223 226 225 224 226 224 225 225 228 231 234 235 234 234 240 252 271 284 289 295 302 307 309 317 316 323 321 313 322 308 311 320 311 312 301 297 296 292 295 297 302
223 223 224 226 227 226 226 226 229 234 236 240 240 235 233 235 240 248 264 278 285 292 298 301 305 311 307 313 314 312 305 299 313 313 312 301 307 307 305 303 303 301 300
222 222 221 223 227 228 228 230 232 233 236 237 235 233 235 236 239 248 263 275 282 288 292 296 299 304 306 307 307 306 303 298 292 287 300 303 303 302 302 301 300 299 300
217 218 220 221 224 227 230 233 233 234 232 232 233 234 234 235 239 247 259 269 276 282 286 293 299 303 303 303 304 303 299 294 292 286 287 298 302 304 301 300 300 299 299